Terminal Aerodrome Forecast
Issued by NWS Nashville, TN

Home | Current Version | Previous Version | Text Only | Print | Product List | Glossary On
Versions: 1 2 3 4 5 6 7 8 9 10 11 12 13 14 15 16 17 18 19 20 21 22 23 24 25 26 27 28 29 30 31 32 33 34 35 36
262
FTUS44 KOHX 191738
TAFBNA
TAF
KBNA 191738Z 1918/2018 32011G16KT P6SM FEW040
     FM192300 33003KT P6SM SKC=

USA.gov is the U.S. government's official web portal to all federal, state and local government web resources and services.